Home > Time Zones > World Clock > Weather > U.S.A. > Reno > Past weeks

Flag Weather past 2 weeks in Reno, Nevada, U.S.A.

Now
45 °F

Mostly cloudy.


Feels Like: 45 °F
Forecast: 42 / 74 °F
Wind: No wind

Location: Reno Tahoe International Airport

Current Time: Oct 30, 2014 at 10:41:34 AM

Latest Report: Oct 30, 2014 at 9:55 AM


Visibility: 10 mi

Pressure: 30.10 "Hg

Humidity: 65%

Dew point: 34 °F

Location of RenoLocation

Historic Weather in Reno — Graph

°F

Reno temperature yesterday

Maximum temperature yesterday: 73 °F (at 3:55 PM)
Minimum temperature yesterday: 40 °F (at 5:55 AM)
Average temperature yesterday: 55 °F

Past Weeks' High & Low Weather Summary

 TemperatureHumidityPressure
High80 °F (Oct 24, 1:55 PM)77% (Oct 29, 5:55 AM)30.25 "Hg (Oct 29, 5:55 AM)
Low33 °F (Oct 27, 5:55 AM)10% (Oct 24, 1:55 PM)29.75 "Hg (Oct 25, 5:55 AM)
Average54 °F43%29.99 "Hg
* Reported Oct 15 9:55 AM — Oct 30 9:55 AM, Reno, Weather by CustomWeather, © 2014

Note: Actual official high and low records may vary slightly from our data, if they occured in-between our weather recording intervals... More about our weather records

Advertising

Reno weather history for previous 24 hours

 ConditionsComfort  
Time TempWeatherWind HumidityBarometerVisibility
9:55 AM
Oct 30
45 °FMostly cloudy.No wind65%30.10 "Hg10 mi
8:55 AM43 °FMostly cloudy.No wind68%30.10 "Hg10 mi
7:55 AM39 °FPartly cloudy.No wind76%30.09 "Hg10 mi
6:55 AM38 °FPassing clouds.5 mph76%30.08 "Hg10 mi
5:55 AM40 °FPassing clouds.No wind73%30.06 "Hg10 mi
4:55 AM40 °FClear.3 mph73%30.06 "Hg10 mi
3:55 AM42 °FClear.No wind71%30.06 "Hg10 mi
2:55 AM43 °FClear.No wind68%30.08 "Hg10 mi
1:55 AM43 °FClear.3 mph65%30.09 "Hg10 mi
12:55 AM46 °FClear.No wind66%30.10 "Hg10 mi
11:55 PM
Oct 29
49 °FClear.No wind59%30.11 "Hg10 mi
10:55 PM53 °FClear.3 mph52%30.11 "Hg10 mi
9:55 PM53 °FClear.3 mph51%30.13 "Hg10 mi
8:55 PM58 °FClear.No wind44%30.11 "Hg10 mi
7:55 PM60 °FClear.3 mph41%30.11 "Hg10 mi
6:55 PM65 °FPassing clouds.3 mph31%30.09 "Hg10 mi
5:55 PM68 °FScattered clouds.6 mph26%30.07 "Hg10 mi
4:55 PM72 °FPassing clouds.7 mph24%30.05 "Hg10 mi
3:55 PM73 °FScattered clouds.7 mph23%30.06 "Hg10 mi
2:55 PM72 °FScattered clouds.6 mph28%30.08 "Hg10 mi
1:55 PM69 °FPartly sunny.No wind31%30.11 "Hg10 mi
12:55 PM65 °FPartly sunny.No wind36%30.15 "Hg10 mi
11:55 AM61 °FPartly sunny.No wind39%30.21 "Hg10 mi
10:55 AM57 °FPartly sunny.No wind46%30.22 "Hg10 mi
Weather by CustomWeather, © 2014

See weather overviewHow to use our weather pages